DW4604 Weather Reports


Display with metric or nautical units.
time (UTC)temp
F
wind
direction
speed
MPH
gust
MPH
rain 1hr
in
rain 24hr
in
rain mn
in
humidity
%
barometer
mb
20210307154520 41 297 2.0 6.0 0.00 0.00 0.00 62 1015.8
20210307154017 41 305 2.0 7.0 0.00 0.00 0.00 61 1015.8
20210307153512 42 305 3.0 11.0 0.00 0.00 0.00 61 1015.8
20210307153015 42 300 3.0 11.0 0.00 0.00 0.00 60 1015.9
20210307152803 42 295 3.0 9.0 0.00 0.00 0.00 60 1015.8
20210307152205 42 300 2.0 8.0 0.00 0.00 0.00 59 1015.9
20210307151528 42 304 3.0 9.0 0.00 0.00 0.00 59 1015.9
20210307151032 42 298 3.0 11.0 0.00 0.00 0.00 59 1015.9
20210307150524 42 300 3.0 11.0 0.00 0.00 0.00 59 1015.9
20210307150024 42 310 3.0 9.0 0.00 0.00 0.00 59 1016.0
20210307145753 42 298 3.0 9.0 0.00 0.00 0.00 58 1016.1
20210307145106 42 286 3.0 12.0 0.00 0.00 0.00 58 1016.1
20210307144509 42 299 3.0 12.0 0.00 0.00 0.00 59 1016.2
20210307144031 42 298 3.0 11.0 0.00 0.00 0.00 58 1016.2
20210307143526 43 290 2.0 8.0 0.00 0.00 0.00 58 1016.2
20210307143032 43 297 2.0 7.0 0.00 0.00 0.00 58 1016.4
20210307142856 42 294 2.0 7.0 0.00 0.00 0.00 58 1016.4
20210307142115 43 296 3.0 9.0 0.00 0.00 0.00 57 1016.4
20210307141537 43 300 4.0 9.0 0.00 0.00 0.00 57 1016.4
20210307141022 42 299 3.0 9.0 0.00 0.00 0.00 57 1016.4
20210307140519 42 291 3.0 8.0 0.00 0.00 0.00 57 1016.5
20210307140043 43 281 3.0 11.0 0.00 0.00 0.00 56 1016.6
20210307135818 43 279 3.0 11.0 0.00 0.00 0.00 55 1016.6
20210307135141 44 275 2.0 9.0 0.00 0.00 0.00 55 1016.7
20210307134512 44 287 1.0 8.0 0.00 0.00 0.00 56 1016.7
20210307134027 43 293 3.0 8.0 0.00 0.00 0.00 56 1016.8
20210307133520 43 267 3.0 8.0 0.00 0.00 0.00 56 1016.9
20210307133130 43 253 3.0 8.0 0.00 0.00 0.00 56 1017.0
20210307132857 43 268 3.0 9.0 0.00 0.00 0.00 56 1017.1
20210307132339 43 283 3.0 10.0 0.00 0.00 0.00 56 1017.1
20210307131519 42 268 4.0 14.0 0.00 0.00 0.00 57 1017.2
20210307131024 42 250 4.0 14.0 0.00 0.00 0.00 57 1017.3
20210307130528 42 243 4.0 13.0 0.00 0.00 0.00 56 1017.4
20210307130209 42 243 4.0 13.0 0.00 0.00 0.00 57 1017.4
20210307125943 42 250 5.0 17.0 0.00 0.00 0.00 56 1017.4
20210307125358 42 242 5.0 17.0 0.00 0.00 0.00 56 1017.5
20210307124513 42 242 4.0 15.0 0.00 0.00 0.00 57 1017.6
20210307124022 42 245 4.0 13.0 0.00 0.00 0.00 59 1017.7
20210307123514 42 245 4.0 13.0 0.00 0.00 0.00 59 1017.8
20210307123052 41 251 4.0 10.0 0.00 0.00 0.00 59 1017.9
20210307122905 41 239 4.0 14.0 0.00 0.00 0.00 60 1018.0
20210307122328 41 240 3.0 14.0 0.00 0.00 0.00 60 1018.0
20210307121522 41 255 2.0 10.0 0.00 0.00 0.00 62 1018.1
20210307121021 41 289 2.0 10.0 0.00 0.00 0.00 63 1018.2
20210307120526 40 305 2.0 8.0 0.00 0.00 0.00 64 1018.3
20210307120046 40 302 2.0 8.0 0.00 0.00 0.00 64 1018.4
20210307115828 40 302 2.0 8.0 0.00 0.00 0.00 64 1018.6
20210307115224 40 293 3.0 8.0 0.00 0.00 0.00 65 1018.6
20210307114518 40 268 4.0 12.0 0.00 0.00 0.00 64 1018.8
20210307114035 40 248 4.0 12.0 0.00 0.00 0.00 64 1018.9
20210307113512 40 241 5.0 14.0 0.00 0.00 0.00 63 1018.8
20210307113151 40 236 6.0 19.0 0.00 0.00 0.00 63 1018.8
20210307112950 40 237 6.0 19.0 0.00 0.00 0.00 63 1018.9
20210307112458 41 245 3.0 11.0 0.00 0.00 0.00 63 1018.9
20210307111522 41 255 3.0 11.0 0.00 0.00 0.00 64 1019.0
20210307111024 41 251 4.0 11.0 0.00 0.00 0.00 64 1019.1
20210307110612 40 238 5.0 13.0 0.00 0.00 0.00 64 1019.2
20210307110328 40 237 5.0 13.0 0.00 0.00 0.00 64 1019.2
20210307110106 40 247 4.0 13.0 0.00 0.00 0.00 65 1019.3
20210307105323 40 243 5.0 13.0 0.00 0.00 0.00 65 1019.4
20210307104526 40 241 6.0 15.0 0.00 0.00 0.00 65 1019.5
20210307104011 40 248 5.0 15.0 0.00 0.00 0.00 66 1019.6
20210307103621 39 242 5.0 15.0 0.00 0.00 0.00 66 1019.6
20210307103039 40 235 4.0 15.0 0.00 0.00 0.00 67 1019.6
20210307102859 39 236 6.0 14.0 0.00 0.00 0.00 67 1019.7
20210307102218 39 238 8.0 19.0 0.00 0.00 0.00 66 1019.7
20210307101518 40 235 7.0 19.0 0.00 0.00 0.00 65 1019.8
20210307101022 40 235 5.0 13.0 0.00 0.00 0.00 67 1019.8
20210307100518 39 242 5.0 18.0 0.00 0.00 0.00 66 1019.9
20210307100240 39 242 4.0 18.0 0.00 0.01 0.00 65 1020.0
20210307100029 39 247 4.0 14.0 0.00 0.01 0.00 64 1019.9
20210307095352 40 246 5.0 14.0 0.00 0.01 0.00 64 1020.0
20210307094519 40 239 6.0 15.0 0.00 0.01 0.00 65 1020.0
20210307094026 40 238 6.0 15.0 0.00 0.01 0.00 66 1020.0
20210307093510 40 239 6.0 15.0 0.00 0.01 0.00 66 1020.0
20210307093020 40 236 6.0 18.0 0.00 0.01 0.00 67 1020.2
20210307092828 39 234 6.0 18.0 0.00 0.01 0.00 67 1020.2
20210307092148 39 234 6.0 14.0 0.00 0.01 0.00 68 1020.4
20210307091520 38 235 6.0 14.0 0.00 0.02 0.00 68 1020.5
20210307091021 38 234 5.0 14.0 0.00 0.02 0.00 69 1020.4
20210307090525 38 234 7.0 16.0 0.00 0.02 0.00 69 1020.5
20210307090122 38 234 8.0 19.0 0.00 0.02 0.00 69 1020.6
20210307085841 37 233 8.0 19.0 0.00 0.02 0.00 69 1020.6
20210307085239 37 235 7.0 14.0 0.00 0.02 0.00 70 1020.6
20210307084520 37 235 7.0 15.0 0.00 0.02 0.00 71 1020.8
20210307084034 37 234 7.0 16.0 0.00 0.02 0.00 71 1020.9
20210307083515 36 235 7.0 16.0 0.00 0.02 0.00 72 1021.0
20210307083045 37 237 5.0 14.0 0.00 0.02 0.00 71 1021.1
20210307082840 36 237 5.0 11.0 0.00 0.02 0.00 73 1021.0
20210307082347 36 235 5.0 11.0 0.00 0.02 0.00 74 1021.2
20210307081546 36 236 4.0 11.0 0.00 0.02 0.00 74 1021.2
20210307081011 35 238 4.0 12.0 0.00 0.02 0.00 74 1021.3
20210307080527 35 239 4.0 12.0 0.00 0.02 0.00 76 1021.5
20210307080031 34 236 3.0 10.0 0.00 0.02 0.00 77 1021.5
20210307075755 34 236 3.0 10.0 0.00 0.02 0.00 77 1021.6
20210307075150 34 237 2.0 9.0 0.00 0.02 0.00 79 1021.7
20210307074512 33 237 2.0 7.0 0.00 0.02 0.00 79 1021.7
20210307074023 33 235 2.0 9.0 0.00 0.02 0.00 80 1021.8
20210307073519 32 236 3.0 9.0 0.00 0.02 0.00 80 1021.8
20210307073031 32 238 2.0 9.0 0.00 0.02 0.00 80 1021.9
20210307072821 32 242 1.0 6.0 0.00 0.02 0.00 81 1021.9
20210307072127 31 238 2.0 6.0 0.00 0.02 0.00 82 1022.0
20210307071517 31 238 2.0 6.0 0.00 0.02 0.00 82 1022.0
20210307071010 31 239 2.0 5.0 0.00 0.02 0.00 82 1022.0
20210307070523 31 242 2.0 8.0 0.00 0.02 0.00 82 1022.1
20210307070022 30 242 2.0 9.0 0.00 0.02 0.00 82 1022.1
20210307065755 30 241 2.0 9.0 0.00 0.02 0.00 82 1022.2
20210307065315 30 243 2.0 6.0 0.00 0.02 0.00 82 1022.2
20210307064514 30 243 2.0 6.0 0.00 0.02 0.00 82 1022.2
20210307064020 30 241 1.0 6.0 0.00 0.02 0.00 82 1022.3
20210307063520 30 241 2.0 6.0 0.00 0.02 0.00 82 1022.3
20210307063020 30 239 1.0 8.0 0.00 0.02 0.00 82 1022.3
20210307062742 30 238 1.0 8.0 0.00 0.02 0.00 82 1022.3
20210307062148 30 241 1.0 4.0 0.00 0.02 0.00 82 1022.3
20210307061520 30 243 1.0 3.0 0.00 0.02 0.00 82 1022.4
20210307061024 30 246 1.0 5.0 0.00 0.02 0.00 82 1022.4
20210307060523 30 246 0.0 5.0 0.00 0.02 0.00 82 1022.4
20210307060034 30 237 1.0 5.0 0.00 0.02 0.00 83 1022.3
20210307055850 30 239 1.0 5.0 0.00 0.02 0.00 82 1022.3
20210307055047 30 238 1.0 6.0 0.00 0.02 0.00 82 1022.2
20210307054523 30 237 1.0 7.0 0.00 0.02 0.00 82 1022.2
20210307054018 30 237 1.0 7.0 0.00 0.02 0.00 82 1022.2
20210307053518 30 238 2.0 8.0 0.00 0.02 0.00 82 1022.2
20210307053028 30 237 2.0 8.0 0.00 0.02 0.00 82 1022.2
20210307052817 29 233 1.0 6.0 0.00 0.02 0.00 83 1022.2
20210307052038 29 230 1.0 7.0 0.00 0.02 0.00 83 1022.4
20210307051525 29 233 2.0 7.0 0.00 0.02 0.00 83 1022.4
20210307051032 29 236 1.0 5.0 0.00 0.02 0.00 83 1022.5
20210307050521 29 234 2.0 7.0 0.00 0.02 0.00 82 1022.5
20210307050023 29 236 2.0 7.0 0.00 0.02 0.00 82 1022.6
20210307045729 29 239 1.0 5.0 0.00 0.02 0.00 82 1022.7
20210307045045 29 241 1.0 6.0 0.00 0.02 0.00 82 1022.7
20210307044518 29 239 1.0 6.0 0.00 0.02 0.00 82 1022.7
20210307044032 29 237 1.0 6.0 0.00 0.02 0.00 82 1022.7
20210307043517 29 240 0.0 6.0 0.00 0.02 0.00 82 1022.8
20210307043023 29 243 0.0 2.0 0.00 0.02 0.00 82 1022.8
20210307042844 29 239 0.0 2.0 0.00 0.02 0.00 82 1022.9
20210307042206 29 234 1.0 4.0 0.00 0.02 0.00 82 1022.9
20210307041525 29 233 1.0 5.0 0.00 0.02 0.00 82 1022.9
20210307041033 29 232 1.0 5.0 0.00 0.02 0.00 82 1023.0
20210307040523 29 234 1.0 4.0 0.00 0.02 0.00 83 1023.0
20210307040035 29 233 1.0 4.0 0.00 0.02 0.00 83 1023.0
20210307035855 29 233 1.0 4.0 0.00 0.02 0.00 83 1023.0
20210307035321 29 235 1.0 3.0 0.00 0.02 0.00 83 1023.0
20210307034521 29 235 0.0 4.0 0.00 0.02 0.00 83 1023.1
20210307034024 29 236 0.0 4.0 0.00 0.02 0.00 84 1023.1
20210307033521 29 238 0.0 2.0 0.00 0.02 0.00 84 1023.2
20210307033202 29 240 0.0 2.0 0.00 0.02 0.00 84 1023.2
20210307033038 29 237 0.0 2.0 0.00 0.02 0.00 84 1023.3
20210307032232 29 235 0.0 2.0 0.00 0.02 0.00 84 1023.2
20210307031531 29 239 0.0 2.0 0.00 0.02 0.00 85 1023.3
20210307031044 29 240 0.0 2.0 0.00 0.02 0.00 85 1023.3
20210307030519 29 243 0.0 3.0 0.00 0.02 0.00 85 1023.3
20210307030052 29 243 0.0 3.0 0.00 0.02 0.00 85 1023.3
20210307025907 29 239 0.0 2.0 0.00 0.02 0.00 84 1023.4
20210307025428 29 239 0.0 1.0 0.00 0.02 0.00 84 1023.4
20210307024540 29 244 0.0 1.0 0.00 0.02 0.00 84 1023.4
20210307024038 28 241 0.0 1.0 0.00 0.02 0.00 84 1023.5
20210307023521 28 237 0.0 1.0 0.00 0.02 0.00 84 1023.6
20210307023157 28 244 0.0 2.0 0.00 0.02 0.00 84 1023.6
20210307023039 28 248 0.0 2.0 0.00 0.02 0.00 84 1023.6
20210307022359 28 252 0.0 1.0 0.00 0.02 0.00 84 1023.6
20210307021533 28 237 0.0 1.0 0.00 0.02 0.00 84 1023.6
20210307021035 28 235 0.0 2.0 0.00 0.02 0.00 84 1023.6
20210307020517 29 241 0.0 2.0 0.00 0.02 0.00 84 1023.7
20210307020133 29 244 0.0 3.0 0.00 0.02 0.00 83 1023.7
20210307015952 29 263 0.0 3.0 0.00 0.02 0.00 83 1023.7
20210307015226 29 257 0.0 2.0 0.00 0.02 0.00 83 1023.7
20210307014527 29 238 0.0 3.0 0.00 0.02 0.00 83 1023.8
20210307014030 29 247 0.0 3.0 0.00 0.02 0.00 83 1023.8
20210307013518 29 243 0.0 2.0 0.00 0.02 0.00 84 1023.9
20210307013021 29 244 0.0 2.0 0.00 0.02 0.00 84 1024.0
20210307012734 29 248 0.0 1.0 0.00 0.02 0.00 84 1024.2
20210307012033 28 244 0.0 1.0 0.00 0.02 0.00 84 1024.2
20210307011520 28 272 0.0 1.0 0.00 0.02 0.00 84 1024.3
20210307011019 28 266 0.0 1.0 0.00 0.02 0.00 84 1024.4
20210307010519 28 240 0.0 1.0 0.00 0.02 0.00 84 1024.5
20210307010135 28 242 0.0 1.0 0.00 0.02 0.00 85 1024.5
20210307005823 28 288 0.0 1.0 0.00 0.02 0.00 84 1024.7
20210307005324 28 288 0.0 1.0 0.00 0.02 0.00 84 1024.7
20210307004521 28 0 0.0 0.0 0.00 0.02 0.00 84 1024.7
20210307004025 28 222 0.0 1.0 0.00 0.02 0.00 84 1024.8
20210307003527 28 237 0.0 1.0 0.00 0.02 0.00 84 1025.0
20210307003021 28 238 0.0 1.0 0.00 0.02 0.00 84 1025.0
20210307002823 28 229 0.0 1.0 0.00 0.02 0.00 84 1025.2
20210307002347 28 232 0.0 1.0 0.00 0.02 0.00 84 1025.3
20210307001524 28 239 0.0 1.0 0.00 0.02 0.00 84 1025.4
20210307001034 28 239 0.0 1.0 0.00 0.02 0.00 84 1025.4
20210307000638 28 242 0.0 1.0 0.00 0.02 0.00 84 1025.4
20210307000150 28 247 0.0 1.0 0.00 0.02 0.00 83 1025.4
20210306235949 28 222 0.0 1.0 0.00 0.02 0.00 83 1025.3
20210306235022 29 231 0.0 1.0 0.00 0.02 0.00 83 1025.4
20210306234439 29 238 0.0 1.0 0.00 0.02 0.00 83 1025.4
20210306233939 29 243 0.0 1.0 0.00 0.02 0.00 83 1025.4
20210306233437 29 244 0.0 1.0 0.00 0.02 0.00 82 1025.5
20210306233050 29 238 0.0 1.0 0.00 0.02 0.00 82 1025.6
20210306232850 29 238 0.0 1.0 0.00 0.02 0.00 82 1025.6
20210306232211 29 231 0.0 1.0 0.00 0.02 0.00 81 1025.7
20210306231438 29 233 0.0 1.0 0.00 0.02 0.00 81 1025.8
20210306230944 29 234 0.0 1.0 0.00 0.02 0.00 81 1025.8
20210306230441 29 235 0.0 1.0 0.00 0.02 0.00 81 1025.8
20210306225943 29 235 0.0 1.0 0.00 0.02 0.00 81 1025.8
20210306225809 29 243 0.0 1.0 0.00 0.02 0.02 80 1025.8
20210306225133 30 243 0.0 1.0 0.00 0.02 0.02 80 1025.8
20210306224438 30 238 0.0 1.0 0.00 0.02 0.02 80 1025.8
20210306223941 30 242 0.0 1.0 0.00 0.02 0.02 80 1025.8
20210306223441 30 246 0.0 1.0 0.00 0.02 0.02 80 1025.9
20210306223056 30 239 0.0 2.0 0.00 0.02 0.02 79 1025.9
20210306222843 30 235 0.0 2.0 0.00 0.02 0.02 79 1025.9
20210306222233 30 239 0.0 1.0 0.00 0.02 0.02 79 1026.1
20210306221445 30 241 0.0 1.0 0.00 0.02 0.02 79 1026.1
20210306220938 30 241 0.0 2.0 0.00 0.02 0.02 79 1026.1
20210306220442 30 242 0.0 2.0 0.00 0.02 0.02 79 1026.1
20210306215941 30 235 0.0 1.0 0.00 0.02 0.02 79 1026.2
20210306215745 30 248 0.0 1.0 0.00 0.02 0.02 79 1026.2
20210306215042 30 299 0.0 1.0 0.00 0.02 0.02 79 1026.1
20210306214437 30 327 0.0 1.0 0.00 0.02 0.02 78 1026.1
20210306213938 30 327 0.0 1.0 0.00 0.02 0.02 78 1026.1
20210306213438 30 218 0.0 1.0 0.00 0.02 0.02 77 1026.1
20210306212950 31 246 0.0 1.0 0.00 0.02 0.02 77 1026.1
20210306212842 31 288 0.0 1.0 0.00 0.02 0.02 75 1026.1
20210306212137 31 278 0.0 1.0 0.00 0.02 0.02 75 1026.2
20210306211441 31 242 0.0 4.0 0.00 0.02 0.02 74 1026.2
20210306210941 32 241 1.0 4.0 0.00 0.02 0.02 73 1026.2
20210306210438 32 237 1.0 4.0 0.00 0.02 0.02 73 1026.2
20210306205944 32 234 1.0 4.0 0.00 0.02 0.02 72 1026.1
20210306205724 32 234 2.0 6.0 0.00 0.02 0.02 72 1026.1
20210306205027 32 233 1.0 6.0 0.00 0.02 0.02 72 1026.1
20210306204439 32 232 1.0 4.0 0.00 0.02 0.02 72 1026.2
20210306203938 32 234 1.0 4.0 0.00 0.02 0.02 72 1026.3
20210306203439 32 235 1.0 4.0 0.00 0.02 0.02 72 1026.3
20210306202949 31 233 0.0 3.0 0.00 0.02 0.02 72 1026.3
20210306202845 31 238 0.0 1.0 0.00 0.02 0.02 72 1026.3
20210306202155 31 237 0.0 1.0 0.00 0.02 0.02 71 1026.4
20210306201439 31 227 0.0 1.0 0.00 0.02 0.02 70 1026.4
20210306200938 32 228 0.0 1.0 0.00 0.02 0.02 70 1026.3
20210306200438 32 234 0.0 1.0 0.00 0.02 0.02 70 1026.2
20210306195939 32 234 0.0 2.0 0.00 0.02 0.02 70 1026.3
20210306195759 32 234 0.0 2.0 0.00 0.02 0.02 70 1026.3
20210306195026 32 223 0.0 2.0 0.00 0.02 0.02 70 1026.3
20210306194440 32 215 0.0 2.0 0.00 0.02 0.02 70 1026.4
20210306193938 32 234 0.0 1.0 0.00 0.02 0.02 69 1026.5
20210306193439 32 233 0.0 2.0 0.00 0.02 0.02 69 1026.5
20210306192953 32 231 1.0 3.0 0.00 0.02 0.02 69 1026.5
20210306192742 32 233 1.0 3.0 0.00 0.02 0.02 69 1026.5
20210306192047 32 235 1.0 3.0 0.00 0.02 0.02 69 1026.5
20210306191438 32 233 1.0 3.0 0.00 0.02 0.02 69 1026.5
20210306190938 32 234 0.0 2.0 0.00 0.02 0.02 69 1026.6
20210306190440 32 237 0.0 3.0 0.00 0.02 0.02 69 1026.6
20210306185939 32 234 1.0 3.0 0.00 0.02 0.02 69 1026.7
20210306185830 32 233 1.0 3.0 0.00 0.02 0.02 69 1026.6
20210306185224 32 231 0.0 3.0 0.00 0.02 0.02 69 1026.7
20210306184438 32 230 0.0 3.0 0.00 0.02 0.02 69 1026.7
20210306183948 32 232 0.0 1.0 0.00 0.02 0.02 69 1026.8
20210306183439 32 234 0.0 1.0 0.00 0.02 0.02 68 1026.9
20210306183138 32 235 0.0 1.0 0.00 0.02 0.02 68 1026.9
20210306182917 32 235 0.0 2.0 0.00 0.02 0.02 67 1026.9
20210306182025 32 235 0.0 2.0 0.00 0.02 0.02 68 1027.1
20210306181440 32 234 0.0 2.0 0.00 0.02 0.02 68 1027.0
20210306180940 32 236 0.0 1.0 0.00 0.02 0.02 68 1027.1
20210306180440 32 232 0.0 1.0 0.00 0.02 0.02 68 1027.0
20210306175956 32 244 0.0 1.0 0.00 0.02 0.02 68 1027.1
20210306175838 33 240 0.0 2.0 0.00 0.02 0.02 68 1027.1
20210306175223 33 235 0.0 2.0 0.00 0.02 0.02 68 1027.1
20210306174443 33 241 0.0 2.0 0.00 0.02 0.02 68 1027.1
20210306173939 33 238 0.0 2.0 0.00 0.02 0.02 67 1027.1
20210306173447 33 236 0.0 2.0 0.00 0.02 0.02 68 1027.1
20210306173024 33 235 0.0 1.0 0.00 0.02 0.02 68 1027.1
20210306172904 33 245 0.0 1.0 0.00 0.02 0.02 68 1027.1
20210306172420 33 245 0.0 1.0 0.00 0.02 0.02 67 1027.1
20210306171442 33 0 0.0 0.0 0.00 0.02 0.02 67 1027.1
20210306170945 34 0 0.0 0.0 0.00 0.02 0.02 66 1027.1
20210306170455 34 0 0.0 0.0 0.00 0.02 0.02 64 1027.1
20210306170301 35 253 0.0 1.0 0.00 0.02 0.02 63 1027.1
20210306170027 35 255 0.0 1.0 0.00 0.02 0.02 62 1027.1
20210306165245 35 238 0.0 1.0 0.00 0.02 0.02 61 1027.1
20210306164446 35 248 0.0 4.0 0.00 0.02 0.02 61 1027.2
20210306163940 36 247 0.0 4.0 0.00 0.02 0.02 60 1027.2
20210306163441 36 244 0.0 3.0 0.00 0.02 0.02 60 1027.0
20210306162946 36 245 0.0 2.0 0.00 0.02 0.02 59 1027.0
20210306162738 37 265 0.0 3.0 0.00 0.02 0.02 58 1027.1
20210306162021 37 304 0.0 3.0 0.00 0.02 0.02 57 1027.1
20210306161443 37 302 1.0 6.0 0.00 0.02 0.02 56 1027.0
20210306160939 37 306 1.0 6.0 0.00 0.02 0.02 56 1027.0
20210306160439 38 313 1.0 4.0 0.00 0.02 0.02 55 1027.0
20210306155941 38 309 1.0 6.0 0.00 0.02 0.02 55 1027.0
20210306155743 38 307 1.0 6.0 0.00 0.02 0.02 55 1027.0
20210306155055 38 299 2.0 7.0 0.00 0.02 0.02 54 1027.0